Yuma, TN

1:03 PM CST on February 10, 2016 (GMT -0600)
School House Road | | Change Station
CLOSE
Current Station
Personal Weather Station
Location: Yuma, TN
Elevation: 492 ft
Nearby Weather Stations

Elev 492 ft 35.85 °N, 88.34 °W | Updated 5 seconds ago

Mostly Cloudy
Mostly Cloudy
30.7 °F
Feels Like 26 °F
N
4.1
Wind Variable Wind from NNW
Gusts 6.3 mph

Today
High -- | Low -- °F
--% Chance of Precip.
Yesterday
High -- | Low -- °F
Precip. -- in
Pressure 30.22 in
Visibility 10.0 miles
Clouds Overcast 9000 ft
Windchill 26 °F
Dew Point 13 °F
Humidity 48%
Rainfall 0.00 in
Snow Depth Not available.
6:46 AM 5:29 PM
Waxing Crescent, 6% visible
METAR KMKL 101853Z 27005KT 10SM OVC090 M01/M14 A3020 RMK AO2 PRESFR SLP231 T10061139
Pressure 30.22 in
Visibility 10.0 miles
Clouds Overcast 9000 ft
Windchill 26 °F
Dew Point 13 °F
Humidity 48%
Rainfall 0.00 in
Snow Depth Not available.
6:46 AM 5:29 PM
Waxing Crescent, 6% visible
METAR KMKL 101853Z 27005KT 10SM OVC090 M01/M14 A3020 RMK AO2 PRESFR SLP231 T10061139

10-Day Weather Forecast

Almanac

Astronomy

Feb. 10, 2016 Rise Set
Actual Time
Civil Twilight
Nautical Twilight
Astronomical Twilight
Moon
Length of Visible Light
Length of Day
Tomorrow will be .
, % of the Moon is Illuminated

Today's Extremes

State Highs State Lows

Community

WunderPhotos

Upload Photos

1,891,921 photos uploaded!

WunderBlog® & News

Nearby

Air Quality

  Air Quality AQ Index Pollutant
Not available.

Snow Depth

Station Depth Elevation

Earthquake Activity

City Distance Mag. Time & Date
Minimum magnitude displayed is 2.5.

Coastal Water Temperatures

Place Temperature

Stations

Nearby Weather Stations

Station Location Temp. Windchill Dew Point Humidity Wind Precip. Elev Updated Type
                   

Watches & Warnings

There are currently no watches in effect.